Temp
-8 -8 -8 -8 -8 -8 -8 -8 -8 -7 -7 -7 -7 -7 -6 -7 -6 -6 -6 -6 -6 -6 -6 -6 -6 -6 -6 -6 -5 -6 -6 -7 -7 -7 -7 -7 -7 -7 -7 -7 -6 -6 -6
-8 -8 -8 -8 -8 -8 -8 -8 -8 -8 -7 -7 -7 -6 -7 -7 -7 -7 -7 -6 -7 -7 -6 -6 -6 -6 -6 -6 -6 -6 -6 -6 -7 -7 -7 -7 -7 -7 -7 -7 -7 -6 -6
-8 -8 -8 -8 -8 -8 -8 -8 -8 -7 -7 -7 -7 -7 -7 -7 -7 -7 -7 -6 -6 -6 -6 -6 -6 -6 -7 -7 -6 -6 -7 -6 -7 -7 -7 -6 -6 -6 -6 -7 -7 -6 -6
-7 -7 -7 -7 -7 -7 -7 -8 -7 -7 -7 -7 -7 -7 -7 -7 -6 -7 -7 -7 -6 -6 -6 -6 -7 -7 -7 -7 -7 -7 -7 -7 -6 -6 -7 -7 -6 -6 -6 -6 -6 -6 -6
-7 -7 -7 -7 -7 -7 -7 -7 -6 -6 -6 -6 -7 -7 -7 -7 -7 -7 -7 -7 -7 -7 -7 -7 -7 -7 -7 -7 -7 -7 -7 -6 -6 -6 -6 -6 -6 -6 -6 -6 -6 -6 -6
-7 -7 -6 -6 -6 -6 -6 -6 -6 -6 -6 -6 -6 -7 -7 -6 -6 -6 -6 -6 -7 -7 -6 -7 -7 -7 -7 -7 -7 -6 -6 -6 -6 -6 -6 -6 -6 -6 -6 -6 -7 -6 -6
-6 -7 -6 -6 -6 -6 -6 -6 -6 -6 -6 -6 -6 -6 -6 -6 -6 -6 -6 -7 -6 -7 -7 -7 -7 -7 -7 -6 -6 -6 -6 -6 -6 -6 -6 -6 -6 -6 -7 -6 -7 -7 -7
-6 -6 -6 -6 -5 -5 -6 -6 -6 -5 -6 -6 -6 -6 -6 -6 -6 -6 -6 -6 -6 -7 -7 -7 -7 -7 -6 -6 -6 -6 -6 -6 -6 -6 -6 -6 -6 -7 -7 -7 -7 -7 -7
-5 -5 -6 -5 -5 -5 -5 -5 -5 -5 -5 -5 -6 -6 -6 -6 -6 -6 -6 -6 -6 -7 -7 -7 -6 -6 -6 -6 -6 -6 -6 -6 -6 -6 -6 -6 -6 -6 -7 -7 -7 -7 -7
-5 -5 -5 -5 -5 -5 -5 -5 -5 -5 -5 -5 -6 -6 -6 -6 -6 -7 -6 -6 -7 -7 -6 -6 -6 -6 -6 -5 -6 -6 -6 -6 -6 -6 -6 -6 -7 -7 -7 -7 -7 -7 -7
-5 -5 -5 -5 -5 -5 -5 -5 -5 -5 -5 -6 -6 -5 -5 -6 -6 -7 -7 -7 -6 -6 -6 -6 -5 -5 -5 -6 -6 -6 -6 -6 -6 -6 -6 -7 -7 -7 -7 -7 -7 -8 -7
-5 -5 -5 -5 -5 -5 -5 -5 -5 -5 -6 -6 -6 -6 -5 -6 -6 -6 -6 -6 -6 -5 -5 -5 -5 -5 -6 -6 -6 -6 -6 -6 -6 -7 -7 -7 -7 -7 -8 -8 -8 -8 -8
-6 -5 -5 -5 -5 -5 -5 -5 -5 -6 -6 -6 -6 -6 -6 -6 -6 -6 -6 -5 -5 -5 -5 -5 -6 -6 -6 -6 -5 -6 -6 -6 -7 -7 -7 -7 -7 -8 -8 -8 -8 -8 -8
-5 -5 -5 -5 -5 -5 -5 -6 -6 -6 -6 -6 -6 -6 -6 -6 -5 -5 -5 -5 -5 -5 -5 -5 -5 -6 -5 -5 -5 -6 -6 -6 -7 -7 -7 -7 -8 -8 -8 -8 -8 -8 -8
-5 -5 -5 -5 -5 -5 -6 -6 -6 -6 -7 -6 -6 -6 -6 -5 -5 -5 -5 -5 -5 -5 -5 -5 -5 -5 -5 -5 -6 -6 -6 -7 -7 -7 -8 -8 -8 -8 -8 -8 -8 -8 -8
-5 -5 -5 -5 -4 -4 -5 -5 -6 -5 -6 -6 -6 -6 -6 -5 -5 -5 -5 -5 -5 -5 -5 -5 -6 -5 -5 -5 -6 -6 -6 -7 -7 -8 -8 -8 -8 -8 -8 -9 -9 -9 -9
-5 -5 -4 -5 -5 -4 -5 -5 -5 -5 -5 -5 -6 -5 -5 -5 -5 -5 -5 -5 -5 -5 -5 -6 -5 -5 -5 -6 -6 -6 -6 -7 -7 -7 -8 -8 -8 -8 -8 -9 -9 -9 -9
-4 -5 -5 -5 -4 -4 -4 -4 -5 -5 -5 -5 -5 -5 -5 -5 -4 -5 -5 -5 -5 -5 -5 -5 -5 -5 -5 -5 -6 -6 -7 -7 -7 -7 -8 -8 -8 -9 -9 -8 -8 -9 -9
-5 -4 -5 -5 -4 -5 -5 -4 -5 -5 -5 -5 -5 -5 -5 -5 -5 -5 -5 -5 -5 -5 -5 -5 -5 -5 -5 -6 -5 -6 -7 -7 -8 -7 -8 -8 -8 -8 -8 -8 -8 -9 -9
-5 -5 -5 -5 -5 -4 -5 -5 -4 -5 -5 -5 -5 -5 -5 -5 -5 -5 -5 -5 -5 -5 -5 -5 -5 -6 -6 -6 -6 -6 -7 -8 -7 -8 -8 -8 -8 -8 -9 -8 -9 -9 -8
-5 -5 -5 -5 -5 -5 -5 -5 -5 -5 -5 -5 -5 -5 -5 -5 -6 -6 -5 -5 -5 -5 -5 -5 -5 -5 -5 -5 -6 -6 -6 -8 -7 -8 -8 -8 -8 -8 -8 -8 -8 -8 -9
-5 -5 -5 -5 -5 -5 -5 -5 -5 -5 -5 -5 -5 -5 -5 -5 -5 -6 -5 -5 -5 -5 -6 -5 -5 -5 -5 -5 -6 -7 -6 -7 -7 -7 -8 -8 -8 -8 -8 -8 -8 -9 -9
-5 -5 -5 -5 -5 -5 -5 -5 -5 -5 -5 -5 -5 -5 -6 -6 -6 -6 -6 -6 -6 -6 -6 -5 -5 -5 -6 -5 -5 -6 -8 -7 -7 -8 -8 -8 -8 -8 -8 -8 -9 -9 -9
-5 -5 -5 -5 -5 -5 -5 -5 -5 -5 -5 -5 -5 -5 -5 -6 -6 -6 -6 -6 -6 -6 -5 -5 -5 -5 -5 -6 -6 -6 -7 -7 -7 -7 -8 -8 -8 -8 -8 -8 -9 -9 -9
-4 -5 -5 -5 -5 -5 -5 -5 -5 -5 -5 -5 -5 -5 -5 -5 -5 -5 -5 -5 -5 -5 -5 -5 -5 -5 -5 -5 -6 -6 -7 -7 -7 -7 -8 -8 -8 -8 -8 -9 -9 -9 -9
-4 -4 -5 -5 -5 -5 -5 -5 -5 -5 -5 -5 -5 -5 -5 -4 -4 -4 -4 -4 -4 -4 -4 -4 -5 -5 -5 -5 -6 -6 -6 -7 -7 -7 -8 -8 -8 -8 -8 -9 -9 -9 -9
Height
5875 5876 5877 5877 5878 5879 5880 5881 5882 5882 5886 5887 5887 5890 5890 5892 5892 5892 5895 5895 5896 5894 5896 5900 5903 5906 5907 5908 5909 5911 5912 5911 5912 5913 5913 5914 5915 5915 5916 5916 5916 5915 5914
5877 5878 5879 5880 5881 5882 5883 5884 5884 5886 5887 5888 5890 5892 5893 5894 5895 5895 5897 5897 5897 5900 5901 5904 5907 5909 5911 5913 5914 5915 5914 5916 5917 5917 5917 5918 5918 5919 5918 5919 5918 5918 5918
5880 5880 5880 5882 5884 5885 5885 5885 5887 5888 5889 5891 5892 5895 5897 5897 5897 5898 5900 5902 5904 5905 5907 5910 5912 5913 5915 5916 5917 5918 5917 5918 5920 5921 5920 5922 5922 5921 5922 5922 5922 5921 5921
5882 5882 5882 5884 5885 5886 5887 5889 5890 5891 5892 5893 5896 5898 5900 5900 5902 5903 5905 5907 5910 5911 5912 5915 5916 5917 5918 5918 5920 5920 5921 5924 5925 5924 5925 5925 5925 5926 5926 5925 5925 5925 5924
5884 5884 5885 5886 5888 5889 5890 5891 5892 5894 5895 5897 5899 5901 5902 5903 5905 5907 5909 5911 5912 5914 5916 5918 5920 5921 5922 5922 5923 5924 5926 5927 5929 5929 5928 5929 5929 5929 5929 5929 5929 5927 5924
5887 5887 5887 5890 5891 5892 5894 5895 5895 5897 5898 5900 5901 5903 5905 5907 5908 5910 5912 5914 5916 5918 5919 5921 5923 5924 5925 5926 5927 5930 5931 5932 5932 5932 5932 5933 5933 5932 5932 5931 5929 5927 5925
5891 5891 5891 5893 5894 5895 5897 5898 5899 5900 5901 5903 5905 5907 5908 5910 5912 5914 5916 5917 5919 5921 5923 5925 5926 5928 5929 5931 5933 5934 5936 5936 5936 5937 5937 5936 5935 5934 5933 5932 5930 5928 5925
5893 5894 5894 5894 5896 5898 5899 5900 5901 5903 5904 5906 5909 5910 5912 5914 5916 5918 5920 5921 5923 5925 5926 5928 5930 5932 5934 5935 5937 5939 5939 5939 5939 5939 5939 5938 5936 5935 5934 5932 5931 5928 5926
5895 5896 5896 5897 5898 5899 5900 5903 5904 5905 5907 5909 5911 5913 5916 5918 5920 5921 5923 5924 5926 5928 5931 5932 5935 5937 5938 5940 5941 5941 5942 5941 5942 5941 5940 5939 5937 5936 5934 5933 5931 5929 5927
5898 5899 5899 5900 5901 5902 5903 5905 5907 5909 5910 5912 5914 5917 5920 5921 5923 5924 5926 5928 5930 5932 5934 5937 5940 5941 5942 5943 5944 5944 5945 5944 5944 5943 5943 5941 5939 5937 5936 5935 5933 5932 5930
5900 5901 5902 5903 5904 5905 5905 5907 5909 5911 5913 5915 5918 5920 5923 5925 5926 5928 5929 5932 5933 5936 5940 5943 5944 5945 5946 5946 5946 5946 5946 5946 5946 5946 5945 5943 5942 5941 5940 5938 5936 5935 5932
5904 5905 5905 5906 5906 5906 5908 5909 5912 5915 5917 5919 5921 5923 5925 5928 5930 5931 5934 5937 5939 5941 5944 5946 5947 5948 5949 5949 5948 5948 5949 5949 5949 5949 5949 5948 5947 5946 5945 5943 5940 5939 5936
5909 5909 5909 5908 5908 5911 5913 5913 5914 5918 5920 5923 5924 5927 5928 5931 5933 5936 5938 5941 5943 5945 5948 5948 5949 5951 5951 5952 5951 5952 5953 5953 5953 5954 5953 5952 5952 5950 5949 5946 5944 5942 5939
5913 5913 5913 5911 5914 5915 5918 5917 5917 5920 5921 5925 5927 5931 5932 5934 5937 5940 5943 5945 5947 5948 5951 5951 5952 5953 5954 5954 5954 5956 5957 5957 5958 5958 5958 5957 5956 5955 5953 5951 5950 5947 5945
5917 5918 5918 5915 5918 5920 5920 5923 5924 5923 5926 5928 5932 5934 5936 5938 5941 5944 5947 5949 5951 5952 5954 5955 5955 5956 5956 5956 5958 5960 5961 5961 5962 5963 5962 5961 5960 5959 5958 5956 5955 5952 5949
5921 5921 5923 5922 5922 5923 5921 5924 5925 5927 5929 5932 5936 5938 5941 5943 5945 5948 5951 5954 5955 5956 5957 5958 5959 5960 5960 5960 5963 5964 5965 5966 5966 5966 5966 5965 5965 5964 5963 5960 5958 5956 5953
5926 5925 5926 5928 5928 5928 5928 5928 5929 5932 5934 5936 5940 5943 5946 5948 5950 5952 5954 5957 5959 5960 5961 5962 5962 5963 5964 5964 5967 5968 5970 5969 5969 5969 5971 5969 5969 5968 5967 5964 5962 5959 5956
5928 5930 5929 5931 5933 5934 5936 5936 5936 5937 5939 5943 5945 5948 5950 5952 5954 5957 5959 5960 5962 5963 5963 5964 5964 5966 5967 5967 5968 5972 5972 5973 5972 5974 5973 5972 5971 5970 5970 5967 5965 5962 5959
5930 5932 5934 5933 5935 5937 5939 5941 5942 5944 5944 5947 5949 5952 5954 5955 5957 5960 5961 5963 5964 5965 5966 5967 5968 5970 5970 5971 5972 5972 5974 5976 5976 5976 5975 5975 5974 5973 5971 5970 5967 5964 5962
5931 5933 5936 5937 5938 5940 5942 5943 5945 5946 5948 5950 5952 5955 5958 5959 5960 5962 5964 5965 5966 5968 5968 5968 5970 5971 5973 5974 5976 5974 5975 5977 5978 5978 5978 5978 5977 5974 5974 5971 5969 5967 5965
5932 5934 5936 5939 5941 5942 5944 5945 5947 5949 5951 5953 5955 5957 5960 5962 5963 5964 5965 5967 5968 5969 5969 5970 5971 5972 5974 5976 5978 5979 5977 5979 5979 5980 5980 5980 5978 5978 5976 5974 5973 5970 5964
5932 5934 5936 5939 5941 5943 5945 5948 5949 5951 5952 5955 5957 5959 5961 5962 5964 5965 5966 5968 5969 5970 5970 5971 5973 5975 5976 5978 5979 5981 5982 5981 5981 5982 5981 5981 5980 5979 5978 5977 5973 5969 5967
5931 5934 5936 5939 5941 5943 5946 5948 5950 5953 5955 5957 5959 5960 5961 5962 5963 5964 5966 5967 5969 5970 5972 5972 5974 5977 5979 5980 5981 5983 5983 5983 5982 5982 5982 5982 5981 5980 5979 5977 5975 5972 5967
5929 5933 5936 5939 5941 5943 5946 5948 5951 5953 5954 5957 5958 5959 5960 5961 5961 5962 5965 5966 5967 5970 5972 5973 5976 5977 5979 5981 5982 5983 5984 5984 5984 5984 5983 5982 5982 5980 5979 5977 5975 5972 5968
5926 5930 5934 5937 5940 5943 5945 5947 5949 5952 5954 5954 5957 5957 5958 5959 5960 5961 5963 5966 5967 5969 5972 5974 5975 5978 5980 5981 5983 5984 5984 5984 5984 5984 5983 5983 5982 5980 5979 5976 5973 5971 5968
5923 5928 5932 5936 5939 5941 5944 5946 5948 5950 5953 5953 5955 5957 5958 5959 5961 5962 5963 5965 5967 5969 5971 5974 5975 5977 5980 5981 5981 5983 5983 5983 5983 5983 5982 5981 5980 5979 5977 5976 5973 5969 5965
Wind_Speed
11 9 9 9 11 15 14 15 19 19 20 20 19 18 14 14 17 15 14 19 18 23 27 28 25 25 25 24 21 20 21 20 18 18 17 15 14 14 14 12 11 11 12
11 11 10 10 12 15 16 20 22 24 23 21 20 19 17 16 26 22 20 22 22 24 24 24 26 24 23 19 19 19 19 18 18 16 14 13 12 12 12 11 12 12 13
9 9 12 12 13 16 21 24 23 22 22 22 20 19 15 18 20 23 23 27 24 24 24 25 25 22 20 17 17 17 15 16 15 13 14 13 12 12 11 13 14 14 14
8 9 11 14 16 17 18 17 20 19 19 19 18 17 17 21 22 22 22 24 22 23 24 24 22 20 18 17 16 14 15 17 14 13 14 13 14 13 14 15 15 16 15
11 11 12 14 16 18 19 18 17 17 18 17 17 18 19 20 21 22 22 22 22 22 24 22 20 19 18 17 16 15 17 16 16 15 16 16 16 15 15 14 14 16 18
13 14 15 15 16 18 19 17 15 16 16 16 16 18 22 22 22 22 23 22 23 23 23 21 21 19 19 18 18 19 19 19 18 19 18 16 16 14 14 15 17 18 17
12 13 15 14 14 14 15 15 15 14 15 16 16 21 24 24 24 25 25 24 25 24 23 21 21 19 20 22 23 21 19 20 19 16 15 15 16 17 17 18 19 19 19
11 11 12 13 14 14 13 14 15 15 13 14 17 22 24 25 26 26 25 26 26 25 23 22 21 22 22 22 21 19 18 17 16 16 16 17 17 18 17 17 17 17 17
9 9 11 11 12 12 13 14 14 15 15 16 18 21 24 23 24 23 25 26 27 25 24 23 24 23 22 21 19 18 16 16 15 15 16 15 15 16 15 15 14 14 15
11 10 11 11 11 12 14 14 14 15 16 18 19 19 22 21 22 21 23 26 26 26 26 25 22 22 21 19 17 15 14 14 12 13 12 14 15 18 18 18 18 19 21
12 11 11 11 12 13 14 13 15 17 18 20 20 22 22 22 22 23 27 27 28 27 26 24 24 21 18 16 15 14 12 12 13 13 16 21 24 25 24 22 21 23 26
15 13 13 12 11 13 15 16 17 20 22 23 24 25 24 21 24 26 28 27 28 27 27 24 21 19 16 12 12 12 13 13 15 19 24 26 28 27 28 29 28 28 32
16 15 15 14 13 14 16 20 21 26 24 24 22 24 21 23 25 27 30 31 30 28 24 21 19 15 14 12 13 13 15 17 21 24 26 29 30 31 32 34 34 36 36
18 17 17 15 17 20 19 18 23 19 23 23 24 21 21 26 29 28 30 29 27 24 20 19 15 13 12 12 15 17 17 20 23 26 28 28 29 30 33 34 35 35 36
20 19 19 17 20 19 22 25 13 19 26 25 22 23 26 27 29 29 28 26 23 20 17 15 13 11 12 15 18 17 20 24 25 25 27 27 28 29 30 31 32 33 34
19 20 19 19 19 21 20 22 15 21 26 24 22 26 27 28 28 28 25 22 18 16 14 11 11 9 14 16 17 22 22 23 25 24 25 25 26 26 27 28 28 30 32
13 17 19 19 17 20 22 21 23 24 26 26 26 26 25 26 26 24 22 18 13 13 11 10 9 12 16 18 20 22 21 22 23 24 20 23 23 24 24 25 26 29 30
14 14 16 18 18 18 18 19 20 23 26 26 26 24 24 22 22 20 18 14 12 10 7 8 10 15 15 19 23 21 20 19 21 20 19 20 20 22 22 24 25 27 30
13 13 13 15 17 18 17 18 19 21 23 24 23 22 21 20 19 16 14 10 9 7 5 6 12 13 15 17 18 19 17 16 17 14 17 18 18 19 22 23 25 27 28
13 13 12 13 16 15 17 16 18 20 21 20 20 19 18 17 15 12 9 8 7 5 4 8 17 16 14 17 8 14 16 13 13 13 15 15 16 21 21 23 26 28 28
13 13 14 14 15 15 15 18 17 17 19 18 18 16 15 13 11 9 8 7 5 4 5 9 17 16 15 12 11 6 11 12 10 9 12 14 15 18 21 25 23 25 31
13 13 14 14 15 17 16 14 15 16 15 14 13 13 11 11 10 9 8 7 6 4 6 10 17 13 13 13 11 8 4 8 8 7 10 12 13 15 18 22 26 29 28
15 13 15 14 15 15 18 16 15 15 13 12 13 14 14 14 13 13 11 11 9 5 6 10 16 14 13 9 7 7 6 1 4 5 8 10 11 14 19 22 24 25 30
20 17 16 17 17 17 16 17 16 14 13 11 10 10 12 13 14 14 14 13 12 9 10 12 16 16 14 11 8 6 2 1 3 5 7 10 10 14 17 20 24 28 31
22 21 19 19 19 20 18 17 17 14 13 13 10 10 10 10 11 10 11 12 13 12 11 13 16 16 13 13 9 8 7 5 6 7 9 11 11 15 18 22 25 28 30
19 20 22 21 20 19 19 18 18 15 15 16 10 9 10 9 9 10 10 11 11 13 14 14 13 13 13 13 13 10 10 9 10 11 11 13 15 16 19 21 23 28 32
Wind_Direction
88 101 104 107 101 119 119 123 133 131 134 131 124 125 118 118 116 137 141 141 142 111 100 99 101 99 94 89 89 92 92 90 89 89 88 82 74 74 69 65 57 52 51
82 100 100 108 118 119 116 132 129 128 125 128 126 121 122 101 120 110 126 126 107 105 99 98 95 93 92 91 86 88 90 90 85 84 90 88 78 70 68 62 53 45 40
84 102 110 111 122 126 121 122 125 121 119 120 124 125 116 109 89 96 101 117 102 109 104 106 102 104 103 93 88 93 98 103 91 83 83 77 76 66 64 53 45 36 27
94 101 115 124 129 134 129 127 124 121 119 119 122 114 108 113 116 112 110 118 117 113 110 109 110 103 94 90 93 104 101 87 82 86 78 71 67 62 55 44 31 20 8
103 107 121 130 136 136 133 135 129 126 119 117 116 111 106 115 119 118 118 113 116 115 114 115 108 101 99 101 101 92 93 93 88 81 68 59 52 44 37 28 13 7 3
99 109 119 131 132 131 135 137 132 126 118 114 118 114 113 113 112 114 114 119 119 119 121 118 106 102 104 99 93 86 82 77 71 66 58 52 42 35 24 18 12 6 360
100 112 117 114 119 125 134 135 131 125 122 120 122 117 115 114 113 113 117 118 121 124 124 117 109 109 102 95 87 82 80 73 66 57 48 36 29 21 14 7 1 359 354
99 105 111 118 123 129 132 136 131 126 124 128 127 122 120 112 113 114 116 119 123 125 121 117 113 104 101 96 89 86 75 64 55 46 34 22 12 6 2 359 355 354 356
99 107 118 125 132 136 136 130 125 127 131 135 129 128 123 115 116 119 121 124 126 125 119 117 108 104 100 94 87 77 64 55 42 29 19 8 1 354 353 355 4 18 27
108 109 121 130 131 134 135 128 124 122 124 128 127 122 126 119 120 121 131 130 128 124 119 113 105 101 94 88 80 73 68 50 35 26 18 13 29 44 50 54 51 44 35
107 111 115 122 126 131 132 130 131 131 127 127 123 122 127 129 124 116 125 131 124 119 110 104 99 96 94 83 79 67 60 46 41 42 53 70 73 71 65 61 57 58 45
99 107 116 119 127 136 136 131 128 126 127 127 124 126 132 131 124 122 123 120 115 110 107 105 104 97 88 79 81 70 54 62 70 77 85 79 74 72 69 65 66 61 52
94 100 106 117 127 128 121 121 125 126 122 129 122 133 134 131 127 123 120 117 115 113 112 105 98 94 87 82 75 69 84 79 87 91 85 80 76 72 67 64 64 60 55
96 97 108 115 109 121 113 127 133 138 134 132 134 139 131 135 129 124 121 119 114 111 107 100 102 99 96 81 82 88 90 96 93 90 86 78 75 70 66 64 60 58 56
106 102 106 105 113 117 125 113 133 120 132 132 134 132 133 133 130 126 123 117 112 111 108 107 105 97 92 99 94 95 106 101 96 91 83 77 71 66 63 59 57 53 50
118 111 113 115 113 114 112 121 115 134 135 133 135 134 134 134 132 130 124 120 119 111 108 113 111 111 107 102 107 111 106 100 94 89 79 74 69 62 58 57 53 50 47
137 125 125 124 124 119 121 122 121 125 132 133 138 136 134 136 133 131 127 124 118 110 115 115 116 122 118 113 114 114 108 101 94 83 76 71 65 60 53 51 48 44 38
144 144 138 136 136 132 130 128 126 129 128 135 137 138 140 139 139 139 136 133 120 109 113 111 125 136 129 135 128 118 109 101 89 83 73 69 60 57 47 44 40 35 29
162 157 151 146 145 149 148 141 140 140 141 143 143 146 148 149 149 146 138 132 122 111 97 125 136 143 140 144 130 127 116 105 92 82 73 61 53 48 42 35 31 24 16
171 172 168 163 159 154 155 151 149 149 147 148 148 150 152 155 156 152 149 144 134 119 118 146 149 146 154 150 148 133 124 115 92 74 68 57 43 39 31 26 23 17 10
191 192 196 193 186 169 164 157 158 157 145 156 155 159 164 169 174 176 173 169 170 160 149 160 164 162 161 154 157 144 119 112 92 72 61 46 40 33 24 18 15 11 10
209 199 195 201 201 199 180 173 173 172 166 172 175 179 186 190 203 210 208 216 225 203 165 165 171 178 174 168 163 179 89 91 85 50 44 35 30 26 21 12 12 9 9
215 213 199 193 197 194 197 186 188 186 195 202 203 204 207 211 215 222 219 223 226 217 183 174 182 181 187 186 187 169 163 101 47 24 7 8 11 13 9 7 8 4 3
220 218 216 203 199 202 201 203 208 216 225 225 226 232 236 237 235 230 222 216 217 198 189 183 189 193 200 194 211 219 221 46 337 354 349 349 358 5 3 4 2 356 355
215 219 219 217 209 211 213 219 229 228 226 226 236 253 253 245 234 224 213 206 201 188 185 190 191 203 211 218 222 241 259 278 307 323 334 346 349 349 352 355 353 351 348
227 221 222 222 222 221 222 222 229 233 238 243 231 267 259 227 219 202 196 194 197 195 192 197 200 207 219 224 230 250 260 273 291 304 318 329 338 345 347 348 344 346 344